Data No.,UTC Date,UTC Time,Latitude,Longitude,Course(deg),Temp(degC),Sal(psu)
21,2013/2/1,8:27:00,34-03.4400N,137-07.9300E,168,16.34,34.6815
22,2013/2/1,8:28:00,34-03.2400N,137-07.9800E,168,16.316,34.7039
23,2013/2/1,8:29:00,34-03.0300N,137-08.0300E,168,16.293,34.6614
24,2013/2/1,8:30:00,34-02.8200N,137-08.0800E,169,16.271,34.7076
25,2013/2/1,8:31:00,34-02.6100N,137-08.1300E,169,16.233,34.7087
26,2013/2/1,8:32:00,34-02.4000N,137-08.1800E,169,16.204,34.705
27,2013/2/1,8:33:00,34-02.1900N,137-08.2300E,169,16.168,34.7081
28,2013/2/1,8:34:00,34-01.9800N,137-08.2700E,169,16.13,34.7073
29,2013/2/1,8:35:00,34-01.7700N,137-08.3200E,168,16.122,34.7054
30,2013/2/1,8:36:00,34-01.5700N,137-08.3800E,166,16.348,34.7019
31,2013/2/1,8:37:00,34-01.3600N,137-08.4400E,167,16.591,---
32,2013/2/1,8:38:00,34-01.1600N,137-08.4900E,167,16.71,34.7114
33,2013/2/1,8:39:00,34-00.9500N,137-08.5400E,167,16.704,34.7177
34,2013/2/1,8:40:00,34-00.7500N,137-08.6000E,167,16.693,34.7102
35,2013/2/1,8:41:00,34-00.5400N,137-08.6600E,167,16.727,34.7059
36,2013/2/1,8:42:00,34-00.3400N,137-08.7100E,167,16.753,---
37,2013/2/1,8:43:00,34-00.1300N,137-08.7700E,166,16.74,34.7105
38,2013/2/1,8:44:00,33-59.9300N,137-08.8200E,166,16.723,34.7123
39,2013/2/1,8:45:00,33-59.7100N,137-08.8800E,167,16.7,34.7102
40,2013/2/1,8:46:00,33-59.5100N,137-08.9400E,166,16.692,34.7122
41,2013/2/1,8:47:00,33-59.3100N,137-09.0000E,167,16.668,34.7039
42,2013/2/1,8:48:00,33-59.1100N,137-09.0500E,166,16.649,34.713
43,2013/2/1,8:49:00,33-58.9000N,137-09.1100E,165,16.587,34.7135
44,2013/2/1,8:50:00,33-58.7000N,137-09.1800E,164,16.439,34.7098
45,2013/2/1,8:51:00,33-58.5000N,137-09.2400E,164,16.214,34.701
46,2013/2/1,8:52:00,33-58.3100N,137-09.3100E,162,16.13,34.6924
47,2013/2/1,8:53:00,33-58.1100N,137-09.3900E,162,16.124,34.6774
48,2013/2/1,8:54:00,33-57.9000N,137-09.4600E,162,16.159,34.6269
49,2013/2/1,8:55:00,33-57.7100N,137-09.5300E,163,16.19,34.6768
50,2013/2/1,8:56:00,33-57.5100N,137-09.6100E,162,16.205,34.6779
51,2013/2/1,8:57:00,33-57.3000N,137-09.6900E,162,16.176,34.6797
52,2013/2/1,8:58:00,33-57.1100N,137-09.7700E,159,16.025,34.6795
53,2013/2/1,8:59:00,33-56.9100N,137-09.8600E,159,16.026,34.6762
54,2013/2/1,9:00:00,33-56.7100N,137-09.9500E,159,16.081,34.6693
55,2013/2/1,9:01:00,33-56.5000N,137-10.0400E,160,16.111,---
56,2013/2/1,9:02:00,33-56.3000N,137-10.1200E,160,16.134,34.66
57,2013/2/1,9:03:00,33-56.1000N,137-10.2100E,161,16.163,34.6764
58,2013/2/1,9:04:00,33-55.9000N,137-10.2900E,160,16.215,34.6749
59,2013/2/1,9:05:00,33-55.6900N,137-10.3800E,160,16.268,34.655
60,2013/2/1,9:06:00,33-55.4900N,137-10.4600E,160,16.287,34.672
61,2013/2/1,9:07:00,33-55.2700N,137-10.5500E,160,16.311,34.6688
62,2013/2/1,9:08:00,33-55.0700N,137-10.6400E,160,16.321,34.663
63,2013/2/1,9:09:00,33-54.8600N,137-10.7200E,161,16.317,34.6744
64,2013/2/1,9:10:00,33-54.6600N,137-10.8100E,160,16.306,34.6749
65,2013/2/1,9:11:00,33-54.4500N,137-10.9000E,159,16.458,34.6774
66,2013/2/1,9:12:00,33-54.2600N,137-10.9900E,159,16.626,34.6762
67,2013/2/1,9:13:00,33-54.0500N,137-11.0700E,160,16.757,34.6832
68,2013/2/1,9:14:00,33-53.8500N,137-11.1500E,162,16.797,34.6817
69,2013/2/1,9:15:00,33-53.6400N,137-11.2300E,162,16.811,34.7032
70,2013/2/1,9:16:00,33-53.4400N,137-11.3000E,163,16.856,34.7059
71,2013/2/1,9:17:00,33-53.2300N,137-11.3800E,163,16.912,34.7093
72,2013/2/1,9:18:00,33-53.0300N,137-11.4500E,162,16.979,34.7055
73,2013/2/1,9:19:00,33-52.8200N,137-11.5200E,163,17.042,34.7149
74,2013/2/1,9:20:00,33-52.6200N,137-11.5900E,164,17.193,34.7188
75,2013/2/1,9:21:00,33-52.4100N,137-11.6600E,165,17.274,34.7306
76,2013/2/1,9:22:00,33-52.2000N,137-11.7200E,165,17.283,34.7424
77,2013/2/1,9:23:00,33-52.0000N,137-11.7800E,166,17.311,34.7507
78,2013/2/1,9:24:00,33-51.7900N,137-11.8400E,167,17.314,34.7487
79,2013/2/1,9:25:00,33-51.5800N,137-11.9000E,165,17.459,34.746
80,2013/2/1,9:26:00,33-51.3700N,137-11.9700E,165,18.017,---
81,2013/2/1,9:27:00,33-51.1700N,137-12.0300E,167,18.256,34.7431
82,2013/2/1,9:28:00,33-50.9600N,137-12.0800E,167,18.388,34.7571
83,2013/2/1,9:29:00,33-50.7500N,137-12.1400E,167,18.548,34.7671
84,2013/2/1,9:30:00,33-50.5400N,137-12.1900E,167,18.637,34.7639
85,2013/2/1,9:31:00,33-50.3400N,137-12.2500E,167,18.741,34.7776
86,2013/2/1,9:32:00,33-50.1300N,137-12.3000E,168,18.844,34.7762
87,2013/2/1,9:33:00,33-49.9300N,137-12.3500E,168,18.911,34.7799
88,2013/2/1,9:34:00,33-49.7300N,137-12.4000E,167,18.936,---
89,2013/2/1,9:35:00,33-49.5300N,137-12.4500E,168,18.972,34.7812
90,2013/2/1,9:36:00,33-49.3400N,137-12.4900E,169,19.073,---
91,2013/2/1,9:37:00,33-49.1400N,137-12.5400E,168,19.147,34.7753
92,2013/2/1,9:38:00,33-48.9500N,137-12.5800E,168,19.156,34.777
93,2013/2/1,9:39:00,33-48.7500N,137-12.6300E,168,19.17,34.7768
94,2013/2/1,9:40:00,33-48.5600N,137-12.6800E,167,19.193,34.7768
95,2013/2/1,9:41:00,33-48.3700N,137-12.7200E,168,19.221,34.7799
96,2013/2/1,9:42:00,33-48.1800N,137-12.7700E,169,19.23,---
97,2013/2/1,9:43:00,33-47.9900N,137-12.8100E,169,19.252,34.7785
98,2013/2/1,9:44:00,33-47.8000N,137-12.8600E,169,19.264,34.7617
99,2013/2/1,9:45:00,33-47.6100N,137-12.9000E,169,19.262,34.782
100,2013/2/1,9:46:00,33-47.4300N,137-12.9400E,169,19.249,34.779
101,2013/2/1,9:47:00,33-47.2400N,137-12.9800E,170,19.241,34.774
102,2013/2/1,9:48:00,33-47.0500N,137-13.0100E,172,19.242,34.7683
103,2013/2/1,9:49:00,33-46.8600N,137-13.0400E,172,19.218,34.7842
104,2013/2/1,9:50:00,33-46.6600N,137-13.0800E,171,19.214,34.7847
105,2013/2/1,9:51:00,33-46.4700N,137-13.1100E,170,19.153,34.7847
106,2013/2/1,9:52:00,33-46.2800N,137-13.1500E,171,18.984,34.784
107,2013/2/1,9:53:00,33-46.0900N,137-13.1800E,171,18.923,34.7776
108,2013/2/1,9:54:00,33-45.9000N,137-13.2200E,171,18.849,34.7776
109,2013/2/1,9:55:00,33-45.7000N,137-13.2600E,170,18.829,34.7852
110,2013/2/1,9:56:00,33-45.5100N,137-13.2900E,170,18.804,34.7843
111,2013/2/1,9:57:00,33-45.3200N,137-13.3300E,170,18.803,34.7851
112,2013/2/1,9:58:00,33-45.1200N,137-13.3700E,170,18.827,34.7897
113,2013/2/1,9:59:00,33-44.9300N,137-13.4100E,169,18.839,---
114,2013/2/1,10:00:00,33-44.7300N,137-13.4600E,168,18.932,34.7916
115,2013/2/1,10:01:00,33-44.5400N,137-13.5000E,170,18.987,34.7902
116,2013/2/1,10:02:00,33-44.3400N,137-13.5300E,171,19.034,34.7913
117,2013/2/1,10:03:00,33-44.1400N,137-13.5700E,171,19.075,34.7901
118,2013/2/1,10:04:00,33-43.9500N,137-13.6100E,171,19.128,34.7924
119,2013/2/1,10:05:00,33-43.7500N,137-13.6500E,170,19.156,---
120,2013/2/1,10:06:00,33-43.5500N,137-13.6900E,170,19.178,34.7917
121,2013/2/1,10:07:00,33-43.3500N,137-13.7300E,170,19.217,34.7644
122,2013/2/1,10:08:00,33-43.1600N,137-13.7700E,169,19.234,34.7907
123,2013/2/1,10:09:00,33-42.9600N,137-13.8100E,170,19.255,34.7959
124,2013/2/1,10:10:00,33-42.7600N,137-13.8500E,171,19.263,34.7714
125,2013/2/1,10:11:00,33-42.5600N,137-13.8900E,171,19.266,34.7951
126,2013/2/1,10:12:00,33-42.3500N,137-13.9300E,170,19.271,34.7916
127,2013/2/1,10:13:00,33-42.1600N,137-13.9700E,170,19.311,34.7886
128,2013/2/1,10:14:00,33-41.9600N,137-14.0100E,170,19.338,34.763
129,2013/2/1,10:15:00,33-41.7600N,137-14.0500E,170,19.366,34.7763
130,2013/2/1,10:16:00,33-41.5700N,137-14.0900E,170,19.372,34.7786
131,2013/2/1,10:17:00,33-41.3700N,137-14.1300E,169,19.388,34.7749
132,2013/2/1,10:18:00,33-41.1800N,137-14.1700E,169,19.404,34.7747
133,2013/2/1,10:19:00,33-40.9800N,137-14.2200E,168,19.416,34.7772
134,2013/2/1,10:20:00,33-40.7900N,137-14.2600E,169,19.429,34.7787
135,2013/2/1,10:21:00,33-40.6000N,137-14.3100E,169,19.444,34.777
136,2013/2/1,10:22:00,33-40.4100N,137-14.3500E,169,19.459,34.7692
137,2013/2/1,10:23:00,33-40.2200N,137-14.3900E,169,19.455,34.7768
138,2013/2/1,10:24:00,33-40.0300N,137-14.4300E,169,19.452,34.7778
139,2013/2/1,10:25:00,33-39.8400N,137-14.4700E,169,19.461,34.7744
140,2013/2/1,10:26:00,33-39.6500N,137-14.5100E,169,19.482,---
141,2013/2/1,10:27:00,33-39.4600N,137-14.5600E,169,19.503,34.7727
142,2013/2/1,10:28:00,33-39.2700N,137-14.6000E,169,19.57,34.7737
143,2013/2/1,10:29:00,33-39.0800N,137-14.6400E,170,19.59,34.7818
144,2013/2/1,10:30:00,33-38.8900N,137-14.6800E,170,19.602,34.7899
145,2013/2/1,10:31:00,33-38.7000N,137-14.7200E,170,19.613,34.7911
146,2013/2/1,10:32:00,33-38.5100N,137-14.7600E,170,19.627,34.7952
147,2013/2/1,10:33:00,33-38.3100N,137-14.8000E,170,19.633,34.791
148,2013/2/1,10:34:00,33-38.1200N,137-14.8400E,170,19.643,34.7961
149,2013/2/1,10:35:00,33-37.9400N,137-14.8800E,169,19.638,34.7938
150,2013/2/1,10:36:00,33-37.7400N,137-14.9200E,169,19.703,34.7949
151,2013/2/1,10:37:00,33-37.5500N,137-14.9600E,170,19.77,34.7559
152,2013/2/1,10:38:00,33-37.3600N,137-15.0000E,171,19.806,34.8116
153,2013/2/1,10:39:00,33-37.1800N,137-15.0400E,171,19.827,34.8215
154,2013/2/1,10:40:00,33-36.9900N,137-15.0700E,171,19.804,34.824
155,2013/2/1,10:41:00,33-36.8000N,137-15.1100E,169,19.739,34.8271
156,2013/2/1,10:42:00,33-36.6100N,137-15.1600E,167,19.624,34.8297
157,2013/2/1,10:43:00,33-36.4200N,137-15.2100E,166,19.667,34.8272
158,2013/2/1,10:44:00,33-36.2200N,137-15.2700E,166,19.821,34.8183
159,2013/2/1,10:45:00,33-36.0300N,137-15.3300E,167,19.884,34.8195
160,2013/2/1,10:46:00,33-35.8400N,137-15.3800E,166,19.942,34.8264
161,2013/2/1,10:47:00,33-35.6500N,137-15.4300E,167,19.997,34.8266
162,2013/2/1,10:48:00,33-35.4600N,137-15.4800E,168,20.045,34.829
163,2013/2/1,10:49:00,33-35.2700N,137-15.5300E,166,20.089,34.8326
164,2013/2/1,10:50:00,33-35.0800N,137-15.5900E,165,20.142,34.8345
165,2013/2/1,10:51:00,33-34.8900N,137-15.6400E,166,20.177,34.8347
166,2013/2/1,10:52:00,33-34.7000N,137-15.7000E,166,20.199,34.8366
167,2013/2/1,10:53:00,33-34.5200N,137-15.7500E,165,20.223,34.8347
168,2013/2/1,10:54:00,33-34.3000N,137-15.8200E,166,20.237,34.8305
169,2013/2/1,10:55:00,33-34.1200N,137-15.8700E,166,20.248,34.7949
170,2013/2/1,10:56:00,33-33.9200N,137-15.9200E,167,20.258,34.8321
171,2013/2/1,10:57:00,33-33.7300N,137-15.9700E,168,20.267,34.8155
172,2013/2/1,10:58:00,33-33.5400N,137-16.0200E,169,20.268,34.8339
173,2013/2/1,10:59:00,33-33.3500N,137-16.0600E,169,20.272,34.8351
174,2013/2/1,11:00:00,33-33.1600N,137-16.1000E,169,20.279,34.8356
175,2013/2/1,11:01:00,33-32.9700N,137-16.1500E,168,20.274,34.8365
176,2013/2/1,11:02:00,33-32.7900N,137-16.1900E,169,20.277,34.8335
177,2013/2/1,11:03:00,33-32.5900N,137-16.2300E,169,20.284,34.8352
178,2013/2/1,11:04:00,33-32.4000N,137-16.2700E,169,20.285,34.8345
179,2013/2/1,11:05:00,33-32.2200N,137-16.3100E,170,20.292,34.834
180,2013/2/1,11:06:00,33-32.0300N,137-16.3500E,169,20.285,---
181,2013/2/1,11:07:00,33-31.8300N,137-16.3900E,170,20.282,34.8339
182,2013/2/1,11:08:00,33-31.6500N,137-16.4300E,170,20.278,34.8339
183,2013/2/1,11:09:00,33-31.4600N,137-16.4700E,169,20.275,34.8323
184,2013/2/1,11:10:00,33-31.2700N,137-16.5100E,170,20.263,34.8347
185,2013/2/1,11:11:00,33-31.0800N,137-16.5500E,171,20.255,34.835
186,2013/2/1,11:12:00,33-30.8900N,137-16.5800E,171,20.243,34.813
187,2013/2/1,11:13:00,33-30.7000N,137-16.6200E,171,20.243,34.8337
188,2013/2/1,11:14:00,33-30.5100N,137-16.6600E,171,20.234,34.8303
189,2013/2/1,11:15:00,33-30.3200N,137-16.6900E,170,20.23,34.8297
190,2013/2/1,11:16:00,33-30.1200N,137-16.7300E,172,20.223,34.8176
191,2013/2/1,11:17:00,33-29.9400N,137-16.7500E,173,20.213,34.8298
192,2013/2/1,11:18:00,33-29.7500N,137-16.7800E,173,20.205,34.8296
193,2013/2/1,11:19:00,33-29.5600N,137-16.8100E,173,20.193,34.8253
194,2013/2/1,11:20:00,33-29.3700N,137-16.8300E,173,20.188,34.8109
195,2013/2/1,11:21:00,33-29.1800N,137-16.8600E,173,20.188,34.8254
196,2013/2/1,11:22:00,33-28.9900N,137-16.8800E,174,20.187,34.8248
197,2013/2/1,11:23:00,33-28.8100N,137-16.9000E,174,20.184,34.8225
198,2013/2/1,11:24:00,33-28.6100N,137-16.9300E,173,20.186,34.822
199,2013/2/1,11:25:00,33-28.4200N,137-16.9600E,174,20.184,34.8209
200,2013/2/1,11:26:00,33-28.2300N,137-16.9800E,174,20.177,34.8165
201,2013/2/1,11:27:00,33-28.0400N,137-17.0100E,173,20.173,34.8224
202,2013/2/1,11:28:00,33-27.8600N,137-17.0300E,173,20.157,34.8231
203,2013/2/1,11:29:00,33-27.6700N,137-17.0500E,173,20.153,34.8234
204,2013/2/1,11:30:00,33-27.4800N,137-17.0800E,172,20.162,34.8202
205,2013/2/1,11:31:00,33-27.3000N,137-17.1000E,174,20.174,34.8192
206,2013/2/1,11:32:00,33-27.1100N,137-17.1200E,174,20.184,34.8163
207,2013/2/1,11:33:00,33-26.9200N,137-17.1400E,174,20.199,34.8164
208,2013/2/1,11:34:00,33-26.7400N,137-17.1600E,174,20.206,34.8189
209,2013/2/1,11:35:00,33-26.5500N,137-17.1800E,176,20.211,34.8208
210,2013/2/1,11:36:00,33-26.3700N,137-17.2000E,173,20.207,34.8205
211,2013/2/1,11:37:00,33-26.1800N,137-17.2600E,160,20.224,34.821
212,2013/2/1,11:38:00,33-26.0300N,137-17.3800E,137,20.22,34.8211
213,2013/2/1,11:39:00,33-25.9200N,137-17.5700E,121,20.224,34.8211
214,2013/2/1,11:40:00,33-25.8300N,137-17.7800E,121,20.219,34.8214
215,2013/2/1,11:41:00,33-25.7200N,137-17.9900E,118,20.211,34.8208
216,2013/2/1,11:42:00,33-25.6200N,137-18.2100E,121,20.209,34.8171
217,2013/2/1,11:43:00,33-25.5000N,137-18.4100E,125,20.211,34.8168
218,2013/2/1,11:44:00,33-25.3600N,137-18.6100E,131,20.198,34.8096
219,2013/2/1,11:45:00,33-25.2200N,137-18.8000E,131,20.207,34.8093
220,2013/2/1,11:46:00,33-25.0700N,137-18.9900E,133,20.219,34.8013
221,2013/2/1,11:47:00,33-24.9200N,137-19.1600E,139,20.229,34.7938
222,2013/2/1,11:48:00,33-24.7600N,137-19.3200E,143,20.238,34.7905
223,2013/2/1,11:49:00,33-24.5900N,137-19.4600E,148,20.241,34.7888
224,2013/2/1,11:50:00,33-24.4100N,137-19.5700E,151,20.242,34.7876
225,2013/2/1,11:51:00,33-24.2400N,137-19.6600E,157,20.237,34.7848
226,2013/2/1,11:52:00,33-24.0500N,137-19.7400E,160,20.243,34.7825
227,2013/2/1,11:53:00,33-23.8700N,137-19.8200E,162,20.231,34.7831
228,2013/2/1,11:54:00,33-23.6900N,137-19.8800E,165,20.228,34.7825
229,2013/2/1,11:55:00,33-23.5000N,137-19.9200E,171,20.212,34.7764
230,2013/2/1,11:56:00,33-23.3200N,137-19.9500E,173,20.21,34.7737
231,2013/2/1,11:57:00,33-23.1400N,137-19.9700E,176,20.201,34.766
232,2013/2/1,11:58:00,33-22.9500N,137-19.9800E,178,20.195,34.77
233,2013/2/1,11:59:00,33-22.7600N,137-19.9900E,176,20.191,34.7681
234,2013/2/1,12:00:00,33-22.5700N,137-20.0000E,176,20.185,34.7672
235,2013/2/1,12:01:00,33-22.3900N,137-20.0200E,176,20.185,34.7655
236,2013/2/1,12:02:00,33-22.2100N,137-20.0300E,177,20.181,---
237,2013/2/1,12:03:00,33-22.0200N,137-20.0400E,176,20.185,34.7614
238,2013/2/1,12:04:00,33-21.8400N,137-20.0500E,176,20.168,34.7615
239,2013/2/1,12:05:00,33-21.6500N,137-20.0600E,177,20.161,34.7629
240,2013/2/1,12:06:00,33-21.4600N,137-20.0800E,176,20.151,34.7629
241,2013/2/1,12:07:00,33-21.2700N,137-20.0900E,176,20.145,34.7595
242,2013/2/1,12:08:00,33-21.0900N,137-20.1000E,177,20.148,34.7576
243,2013/2/1,12:09:00,33-20.9000N,137-20.1100E,177,20.147,34.7563
244,2013/2/1,12:10:00,33-20.7100N,137-20.1200E,178,20.149,34.751
245,2013/2/1,12:11:00,33-20.5300N,137-20.1300E,178,20.143,34.7599
246,2013/2/1,12:12:00,33-20.3400N,137-20.1400E,177,20.142,34.7582
247,2013/2/1,12:13:00,33-20.1600N,137-20.1500E,177,20.143,34.7593
248,2013/2/1,12:14:00,33-19.9700N,137-20.1600E,177,20.135,34.714
249,2013/2/1,12:15:00,33-19.7900N,137-20.1700E,178,20.136,34.7571
250,2013/2/1,12:16:00,33-19.6000N,137-20.1700E,180,20.136,34.7552
251,2013/2/1,12:17:00,33-19.4200N,137-20.1600E,180,20.139,34.7584
252,2013/2/1,12:18:00,33-19.2300N,137-20.1600E,180,20.139,34.7567
253,2013/2/1,12:19:00,33-19.0500N,137-20.1600E,179,20.141,34.7581
254,2013/2/1,12:20:00,33-18.8500N,137-20.1600E,182,20.147,34.7598
255,2013/2/1,12:21:00,33-18.6700N,137-20.1500E,182,20.153,34.7611
256,2013/2/1,12:22:00,33-18.4900N,137-20.1400E,183,20.151,34.7626
257,2013/2/1,12:23:00,33-18.3100N,137-20.1300E,183,20.153,34.7648
258,2013/2/1,12:24:00,33-18.1300N,137-20.1100E,182,20.156,34.7654
259,2013/2/1,12:25:00,33-17.9400N,137-20.1000E,182,20.153,34.7657
260,2013/2/1,12:26:00,33-17.7600N,137-20.0900E,184,20.158,34.7606
261,2013/2/1,12:27:00,33-17.5800N,137-20.0700E,184,20.156,34.7669
262,2013/2/1,12:28:00,33-17.3900N,137-20.0600E,184,20.17,34.768
263,2013/2/1,12:29:00,33-17.2000N,137-20.0400E,184,20.164,34.7689
264,2013/2/1,12:30:00,33-17.0200N,137-20.0300E,184,20.166,34.7704
265,2013/2/1,12:31:00,33-16.8300N,137-20.0200E,183,20.165,34.7698
266,2013/2/1,12:32:00,33-16.6500N,137-20.0000E,183,20.165,34.7552
267,2013/2/1,12:33:00,33-16.4600N,137-19.9900E,183,20.164,34.7679
268,2013/2/1,12:34:00,33-16.2800N,137-19.9700E,183,20.165,34.7688
269,2013/2/1,12:35:00,33-16.1000N,137-19.9600E,184,20.173,34.7702
270,2013/2/1,12:36:00,33-15.9100N,137-19.9400E,184,20.169,34.7677
271,2013/2/1,12:37:00,33-15.7300N,137-19.9300E,184,20.176,34.7717
272,2013/2/1,12:38:00,33-15.5500N,137-19.9000E,187,20.184,34.7712
273,2013/2/1,12:39:00,33-15.3700N,137-19.8800E,186,20.186,34.7722
274,2013/2/1,12:40:00,33-15.1900N,137-19.8500E,187,20.201,34.7729
275,2013/2/1,12:41:00,33-15.0100N,137-19.8200E,187,20.207,34.7712
276,2013/2/1,12:42:00,33-14.8200N,137-19.7900E,187,20.215,34.7743
277,2013/2/1,12:43:00,33-14.6400N,137-19.7700E,187,20.213,34.7727
278,2013/2/1,12:44:00,33-14.4600N,137-19.7300E,189,20.217,34.7773
279,2013/2/1,12:45:00,33-14.2800N,137-19.7100E,182,20.225,34.7771
280,2013/2/1,12:46:00,33-14.1000N,137-19.7300E,172,20.224,34.7422
281,2013/2/1,12:47:00,33-13.9200N,137-19.7700E,168,20.222,34.7793
282,2013/2/1,12:48:00,33-13.7400N,137-19.8200E,168,20.221,34.7781
283,2013/2/1,12:49:00,33-13.5600N,137-19.8600E,168,20.217,34.7737
284,2013/2/1,12:50:00,33-13.3700N,137-19.9100E,167,20.22,34.7805
285,2013/2/1,12:51:00,33-13.1900N,137-19.9600E,166,20.229,34.7793
286,2013/2/1,12:52:00,33-13.0100N,137-20.0000E,167,20.228,34.7823
287,2013/2/1,12:53:00,33-12.8300N,137-20.0500E,167,20.224,34.789
288,2013/2/1,12:54:00,33-12.6400N,137-20.1000E,168,20.227,34.7904
289,2013/2/1,12:55:00,33-12.4600N,137-20.1500E,167,20.225,34.7905
290,2013/2/1,12:56:00,33-12.2700N,137-20.1900E,167,20.215,34.7929
291,2013/2/1,12:57:00,33-12.0900N,137-20.2400E,167,20.204,34.7938
292,2013/2/1,12:58:00,33-11.9100N,137-20.2800E,168,20.197,34.7954
293,2013/2/1,12:59:00,33-11.7200N,137-20.3300E,169,20.184,34.7984
294,2013/2/1,13:00:00,33-11.5400N,137-20.3700E,167,20.178,34.7966
295,2013/2/1,13:01:00,33-11.3500N,137-20.4200E,168,20.161,34.8024
296,2013/2/1,13:02:00,33-11.1700N,137-20.4700E,168,20.141,34.8029
297,2013/2/1,13:03:00,33-10.9700N,137-20.5100E,168,20.118,34.8024
298,2013/2/1,13:04:00,33-10.7900N,137-20.5600E,168,20.081,34.8049
299,2013/2/1,13:05:00,33-10.6000N,137-20.6100E,168,20.038,34.8083
300,2013/2/1,13:06:00,33-10.4200N,137-20.6500E,168,20.032,34.8085
301,2013/2/1,13:07:00,33-10.2400N,137-20.6900E,169,20.013,34.8112
302,2013/2/1,13:08:00,33-10.0600N,137-20.7300E,170,19.994,34.8008
303,2013/2/1,13:09:00,33-09.8700N,137-20.7700E,169,19.995,34.8109
304,2013/2/1,13:10:00,33-09.6900N,137-20.8100E,169,20.013,34.8143
305,2013/2/1,13:11:00,33-09.5000N,137-20.8500E,170,20.025,34.8126
306,2013/2/1,13:12:00,33-09.3200N,137-20.8800E,170,20.036,34.8096
307,2013/2/1,13:13:00,33-09.1300N,137-20.9200E,171,20.04,34.7989
308,2013/2/1,13:14:00,33-08.9400N,137-20.9500E,171,20.002,34.8069
309,2013/2/1,13:15:00,33-08.7500N,137-20.9900E,171,19.953,34.8099
310,2013/2/1,13:16:00,33-08.5600N,137-21.0200E,171,19.883,34.8122
311,2013/2/1,13:17:00,33-08.3700N,137-21.0600E,171,19.862,34.8119
312,2013/2/1,13:18:00,33-08.1900N,137-21.0900E,171,19.836,34.8176
313,2013/2/1,13:19:00,33-08.0000N,137-21.1200E,171,19.817,34.8182
314,2013/2/1,13:20:00,33-07.8100N,137-21.1600E,171,19.8,34.8186
315,2013/2/1,13:21:00,33-07.6200N,137-21.1900E,173,19.791,34.8221
316,2013/2/1,13:22:00,33-07.4300N,137-21.2200E,173,19.741,34.8213
317,2013/2/1,13:23:00,33-07.2500N,137-21.2500E,171,19.649,34.8221
318,2013/2/1,13:24:00,33-07.0500N,137-21.2800E,170,19.515,34.8228
319,2013/2/1,13:25:00,33-06.8500N,137-21.3300E,169,19.426,34.8264
320,2013/2/1,13:26:00,33-06.6600N,137-21.3700E,169,19.366,34.8299
321,2013/2/1,13:27:00,33-06.4800N,137-21.4100E,169,19.319,34.8332
322,2013/2/1,13:28:00,33-06.2900N,137-21.4500E,170,19.278,34.8398
323,2013/2/1,13:29:00,33-06.1000N,137-21.4900E,170,19.276,34.8483
324,2013/2/1,13:30:00,33-05.9100N,137-21.5300E,168,19.276,34.8532
325,2013/2/1,13:31:00,33-05.7300N,137-21.5700E,168,19.286,34.8536
326,2013/2/1,13:32:00,33-05.5400N,137-21.6100E,169,19.289,34.8535
327,2013/2/1,13:33:00,33-05.3600N,137-21.6500E,169,19.292,34.8554
328,2013/2/1,13:34:00,33-05.1800N,137-21.6900E,170,19.301,34.8522
329,2013/2/1,13:35:00,33-05.0000N,137-21.7300E,170,19.31,34.8505
330,2013/2/1,13:36:00,33-04.8200N,137-21.7600E,170,19.314,34.8417
331,2013/2/1,13:37:00,33-04.6400N,137-21.8000E,169,19.325,34.8429
332,2013/2/1,13:38:00,33-04.4700N,137-21.8400E,170,19.329,34.837
333,2013/2/1,13:39:00,33-04.2900N,137-21.8800E,169,19.339,34.8372
334,2013/2/1,13:40:00,33-04.1100N,137-21.9200E,169,19.344,34.8342
335,2013/2/1,13:41:00,33-03.9300N,137-21.9500E,169,19.355,34.8373
336,2013/2/1,13:42:00,33-03.7600N,137-21.9900E,170,19.358,34.8282
337,2013/2/1,13:43:00,33-03.5800N,137-22.0300E,169,19.358,34.8422
338,2013/2/1,13:44:00,33-03.4000N,137-22.0700E,170,19.368,34.8387
339,2013/2/1,13:45:00,33-03.2200N,137-22.1000E,171,19.378,34.8387
340,2013/2/1,13:46:00,33-03.0300N,137-22.1400E,170,19.386,34.8375
341,2013/2/1,13:47:00,33-02.8600N,137-22.1800E,169,19.398,34.843
342,2013/2/1,13:48:00,33-02.6800N,137-22.2100E,170,19.417,34.8427
343,2013/2/1,13:49:00,33-02.5100N,137-22.2500E,170,19.439,34.8391
344,2013/2/1,13:50:00,33-02.3300N,137-22.2800E,171,19.462,---
345,2013/2/1,13:51:00,33-02.1600N,137-22.3100E,171,19.481,34.839
346,2013/2/1,13:52:00,33-01.9900N,137-22.3500E,169,19.498,34.8395
347,2013/2/1,13:53:00,33-01.8100N,137-22.3900E,168,19.5,34.8386
348,2013/2/1,13:54:00,33-01.6400N,137-22.4300E,168,19.51,34.8371
349,2013/2/1,13:55:00,33-01.4700N,137-22.4700E,169,19.517,34.8366
350,2013/2/1,13:56:00,33-01.3000N,137-22.5100E,169,19.521,34.8384
351,2013/2/1,13:57:00,33-01.1200N,137-22.5400E,170,19.527,34.8329
352,2013/2/1,13:58:00,33-00.9500N,137-22.5800E,170,19.535,34.8326
353,2013/2/1,13:59:00,33-00.7800N,137-22.6200E,169,19.546,34.8309
354,2013/2/1,14:00:00,33-00.6000N,137-22.6600E,168,19.553,34.826
355,2013/2/1,14:01:00,33-00.4300N,137-22.7100E,168,19.55,34.8347
356,2013/2/1,14:02:00,33-00.2600N,137-22.7500E,168,19.554,34.8358
357,2013/2/1,14:03:00,33-00.0900N,137-22.7900E,168,19.556,34.8359
358,2013/2/1,14:04:00,32-59.9200N,137-22.8300E,168,19.56,34.8361
359,2013/2/1,14:05:00,32-59.7400N,137-22.8700E,168,19.552,34.8366
360,2013/2/1,14:06:00,32-59.5700N,137-22.9100E,168,19.556,34.8371
361,2013/2/1,14:07:00,32-59.4000N,137-22.9500E,169,19.561,34.8359
362,2013/2/1,14:08:00,32-59.2100N,137-23.0000E,168,19.553,34.8324
363,2013/2/1,14:09:00,32-59.0400N,137-23.0400E,168,19.549,34.8338
364,2013/2/1,14:10:00,32-58.8700N,137-23.0800E,168,19.545,34.8256
365,2013/2/1,14:11:00,32-58.6900N,137-23.1200E,169,19.543,34.8298
366,2013/2/1,14:12:00,32-58.5200N,137-23.1600E,169,19.538,34.8284
367,2013/2/1,14:13:00,32-58.3500N,137-23.2000E,169,19.523,34.8366
368,2013/2/1,14:14:00,32-58.1700N,137-23.2400E,169,19.513,34.8383
369,2013/2/1,14:15:00,32-58.0000N,137-23.2800E,169,19.496,34.8361
370,2013/2/1,14:16:00,32-57.8300N,137-23.3200E,169,19.492,34.8361
371,2013/2/1,14:17:00,32-57.6500N,137-23.3600E,169,19.471,34.8376
372,2013/2/1,14:18:00,32-57.4700N,137-23.4000E,170,19.457,34.8389
373,2013/2/1,14:19:00,32-57.3000N,137-23.4400E,168,19.452,34.831
374,2013/2/1,14:20:00,32-57.1300N,137-23.4800E,168,19.435,34.8367
375,2013/2/1,14:21:00,32-56.9600N,137-23.5100E,169,19.422,34.8402
376,2013/2/1,14:22:00,32-56.7800N,137-23.5500E,168,19.402,34.839
377,2013/2/1,14:23:00,32-56.6100N,137-23.5900E,168,19.379,---
378,2013/2/1,14:24:00,32-56.4400N,137-23.6400E,168,19.371,34.8394
379,2013/2/1,14:25:00,32-56.2700N,137-23.6800E,166,19.181,34.8236
380,2013/2/1,14:26:00,32-56.1000N,137-23.7300E,165,19.141,34.8429
381,2013/2/1,14:27:00,32-55.9200N,137-23.7800E,165,19.093,34.8507